Regional Weather Roundup
Issued by NWS

Home | Current Version | Previous Version | Graphics & Text | Print | Product List | Glossary On
Versions: 1 2 3 4 5 6 7 8 9 10 11 12 13 14 15 16 17 18 19 20 21 22 23 24 25 26 27 28
000
ASUS45 KTFX 282110
RWRMT
MONTANA REGIONAL WEATHER ROUNDUP
NATIONAL WEATHER SERVICE GREAT FALLS MT
300 PM MDT THU JUL 28 2016

NOTE: "FAIR" INDICATES FEW OR NO CLOUDS BELOW 12000 FEET WITH NO
SIGNIFICANT WEATHER AND/OR OBSTRUCTIONS TO VISIBILITY.

MTZ001>007-043-282200-
WEST OF THE DIVIDE

CITY           SKY/WX    TMP DP  RH WIND       PRES   REMARKS
KALISPELL        N/A     85  53  33 VRB7      30.10F
MISSOULA         N/A     89  47  23 NW5       30.09F
BUTTE          MOSUNNY   82  36  19 VRB7G17   30.22F
MULLAN PASS      N/A     74  43  32 VRB3      30.30F
ANACONDA         N/A     81  45  28 CALM      30.18F
DEER LODGE       N/A     82  46  28 CALM      30.20F
EUREKA           N/A     84  52  32 W8        30.10F
HAMILTON         N/A     84  50  30 CALM      30.12F
LIBBY            N/A     88  48  25 SW5       30.08F
PLAINS           N/A     92  47  21 W10       30.06F
RONAN            N/A     85  50  29 W2        30.15F
THOMPSON FALLS   N/A     89  51  27 N2        30.09F
$$

MTZ008-052>055-282200-
SOUTHWEST MONTANA

CITY           SKY/WX    TMP DP  RH WIND       PRES   REMARKS
BOZEMAN        SUNNY     83  51  33 NW9       30.16F
DILLON         SUNNY     84  44  24 N7        30.18F
W YELLOWSTONE  SUNNY     79  27  14 W7        30.29F
ENNIS          SUNNY     82  23  11 SW7G13    30.24F
THREE FORKS      N/A     83  83 100 CALM      30.14F HX  99
TWIN BRIDGES     N/A     84  43  23 SW2       30.15F
$$

MTZ009-010-012-014-046-048-049-054-282200-
EAST SLOPES AND CENTRAL MONTANA

CITY           SKY/WX    TMP DP  RH WIND       PRES   REMARKS
CUT BANK         N/A     80  48  32 VRB3      30.14F
GREAT FALLS    SUNNY     83  45  26 NE9       30.14F
HELENA         SUNNY     87  45  23 NE6       30.11F
CHOTEAU          N/A     84  46  26 N9        30.16F
CONRAD           N/A     83  54  36 N6        30.16F
$$

MTZ011-013-016-021-045-047-050-051-282200-
NORTH CENTRAL MONTANA

CITY           SKY/WX    TMP DP  RH WIND       PRES   REMARKS
HAVRE          SUNNY     82  53  36 NE10      30.12F
N BAR RANCH    PTSUNNY   77  48  36 VRB5G14   30.23F
CHINOOK          N/A     79  55  44 E7        30.13F
$$

MTZ017>020-022>027-061-062-282200-
NORTHEAST MONTANA

CITY           SKY/WX    TMP DP  RH WIND       PRES   REMARKS
GLASGOW        MOSUNNY   75  55  49 S5        30.14F
JORDAN           N/A     77  55  46 VRB3      30.15F
SIDNEY         MOSUNNY   78  54  43 CALM      30.13F
WOLF POINT     SUNNY     81  54  39 NE7       30.13F
PLENTYWOOD       N/A     73  52  46 NE7       30.15F
SCOBEY           N/A     76  50  40 NE3       30.15F
$$

MTZ028>42-056>058-282200-
SOUTHCENTRAL AND SOUTHEAST MONTANA

CITY           SKY/WX    TMP DP  RH WIND       PRES   REMARKS
BAKER          LGT RAIN  73  58  59 N9        30.14S
BILLINGS       MOSUNNY   79  53  40 E10       30.16F
LIVINGSTON     CLOUDY    83  48  29 E13       30.16F
MILES CITY     SUNNY     77  55  46 VRB6      30.13F
EKALAKA          N/A     72  57  58 NW7       30.13S
FORSYTH          N/A     75  55  50 N5        30.14F
LAUREL           N/A     78  53  41 NE5       30.14F
ROUNDUP          N/A     77  52  41 CALM      30.08F
$$

REGIONAL REPORTS...DAKOTAS

CITY           SKY/WX    TMP DP  RH WIND       PRES   REMARKS
WILLISTON      MOSUNNY   77  51  40 NE6       30.14F
MINOT          PTSUNNY   78  52  40 NE9       30.13F
DICKINSON      CLOUDY    65  58  78 E9        30.14F
BEACH          CLOUDY    68  63  83 E9        30.18F
WATFORD CITY     N/A    N/A N/A N/A MISG        N/A
BISMARCK       CLOUDY    74  56  53 NE5       30.12F
GRAND FORKS    MOSUNNY   77  57  50 N8        30.10F
FARGO          MOSUNNY   81  61  50 N6        30.07S
BUFFALO SD       N/A     65  61  87 E6        30.08R
RAPID CITY     CLOUDY    72  58  61 N6        30.13F
$$

REGIONAL REPORTS...WYOMING/IDAHO/WASHINGTON

CITY           SKY/WX    TMP DP  RH WIND       PRES   REMARKS
GILLETTE       PTSUNNY   74  56  53 VRB3      30.19F
SHERIDAN       MOSUNNY   78  52  40 W6        30.17F
BUFFALO WY     CLOUDY    72  49  44 N10       30.24S
CODY           MOSUNNY   75  52  43 NE9       30.22F
YELLOWSTONE LA   N/A     73  33  23 VRB5      30.37F
IDAHO FALLS    SUNNY     90  38  16 VRB5      30.14F
SALMON         SUNNY     90  45  20 N5        30.07F
BOISE            N/A     97  41  14 NW12      30.02F HX  92
SPOKANE          N/A     92  47  21 N7        30.07F
$$

REGIONAL REPORTS...ALBERTA

CITY           SKY/WX    TMP DP  RH WIND       PRES   REMARKS
EDMONTON       MOSUNNY   79  57  47 S3        30.06F
CALGARY        PTSUNNY   77  57  50 S8        30.12F
LETHBRIDGE     MOSUNNY   79  57  47 SE6       30.11F
MEDICINE HAT   MOSUNNY   88  54  31 W3        30.09F
WATERTON GATE    N/A     81  54  39 SW2         N/A
MILK RIVER       N/A     81  50  34 E6          N/A
$$

REGIONAL REPORTS...SASKATCHEWAN

CITY           SKY/WX    TMP DP  RH WIND       PRES   REMARKS
SWIFT CURRENT  SUNNY     75  54  46 S3        30.13F
REGINA         PTSUNNY   77  52  41 E3        30.14F
SASKATOON      MOSUNNY   82  50  32 W8        30.09F
CYPRESS HILLS    N/A     73  48  40 S7          N/A
VAL MARIE        N/A     77  50  38 SW5         N/A
ROCKGLEN         N/A     72  52  49 SE6         N/A
ASSINIBOIA       N/A     70  59  68 SW5         N/A
$$




USA.gov is the U.S. government's official web portal to all federal, state and local government web resources and services.